Dewpoint
10 10 9 9 9 9 9 9 8 8 8 8 8 8 8 8 8 8 8 8 9 9 9 9 9 8 10 14 15 15 14 15 16 16 16 13 4 2 3 2 6 9
10 10 9 10 10 9 9 9 8 8 8 8 8 8 8 8 8 8 8 9 9 9 8 7 8 7 9 12 14 14 15 16 16 16 16 11 1 1 3 2 3 2
10 12 11 10 10 8 8 9 9 9 8 8 8 7 8 8 8 8 7 9 10 10 10 9 8 7 9 11 12 14 15 16 16 16 16 11 1 1 3 3 6 3
11 12 12 10 9 8 9 10 10 10 9 9 8 8 8 8 8 8 8 8 8 10 12 11 8 7 9 11 12 13 15 16 16 16 16 13 4 0 2 3 8 8
11 11 11 12 12 11 11 11 12 11 11 10 9 8 8 8 8 8 8 8 8 9 10 10 8 8 8 10 12 12 13 15 16 16 16 14 6 0 2 1 4 7
10 11 12 13 13 12 12 13 13 13 12 11 11 10 10 9 8 8 8 8 7 8 9 9 8 8 8 10 11 11 11 13 15 15 15 14 7 1 3 1 0 2
8 10 11 12 12 12 12 13 13 13 13 12 12 12 12 10 9 8 9 8 8 8 9 8 8 8 8 10 11 11 10 10 13 15 14 12 8 3 2 2 2 2
7 8 10 11 12 12 12 12 12 13 13 13 13 13 13 12 10 8 8 9 8 8 8 8 8 8 8 9 10 11 11 9 9 11 10 8 8 5 2 2 2 3
5 7 8 9 10 10 11 11 11 12 12 12 13 13 13 13 11 10 9 8 9 8 8 8 8 8 8 9 10 10 11 10 8 6 4 5 7 6 4 3 3 3
6 7 7 7 8 9 10 10 10 11 11 11 12 13 13 13 12 12 10 10 9 9 9 8 8 8 8 9 10 10 11 11 10 7 4 4 6 7 6 5 4 3
7 7 8 8 8 8 9 9 10 10 11 11 11 12 13 13 12 12 12 11 11 11 10 9 9 9 8 9 9 10 11 11 11 10 6 5 6 7 7 7 6 5
7 7 8 9 9 9 9 10 10 11 11 11 10 11 12 12 12 12 13 13 12 12 11 10 9 9 9 9 8 9 10 11 12 11 9 7 6 6 6 7 8 7
5 6 7 8 9 9 10 10 9 10 12 12 10 10 11 12 13 12 12 13 13 12 12 11 10 9 9 9 8 8 9 11 12 12 11 9 7 6 6 7 7 9
6 6 6 7 8 8 8 9 9 9 11 12 11 10 11 11 12 12 12 13 13 12 12 12 10 10 9 9 8 8 8 10 11 12 12 11 10 7 6 6 7 8
7 7 7 7 8 8 8 8 9 9 10 11 11 10 10 11 11 12 12 12 13 12 12 11 11 10 9 8 8 8 8 8 10 11 12 12 11 9 8 7 6 8
9 8 8 7 8 8 8 8 8 10 10 11 11 10 10 11 11 12 12 13 13 13 12 11 11 10 9 8 8 8 8 8 9 10 11 12 12 11 10 9 7 7
10 8 8 8 8 8 8 8 8 9 10 11 11 11 11 11 11 12 12 13 13 13 13 12 11 9 8 7 7 7 8 8 8 8 10 11 12 12 11 10 8 7
9 9 9 9 9 9 9 9 9 10 11 11 12 12 11 11 11 12 12 13 13 13 13 13 12 10 7 6 6 6 7 8 8 8 9 9 10 11 11 11 10 9
9 9 9 9 10 10 10 11 10 10 11 12 12 12 11 12 12 12 12 12 13 13 13 13 13 11 8 6 5 5 6 8 8 8 8 8 9 10 10 11 11 10
9 9 9 10 10 10 11 11 11 11 11 12 13 13 12 13 13 12 13 12 12 13 13 13 13 12 9 7 5 5 5 6 8 9 9 9 9 10 10 10 10 11
8 8 10 11 11 11 12 11 11 11 11 12 13 13 13 13 13 13 12 12 13 14 13 13 13 13 11 7 5 5 5 6 7 8 9 9 10 10 10 10 10 10
7 8 9 10 11 11 11 11 11 11 11 11 12 13 13 14 14 13 12 12 14 15 14 13 13 14 12 9 5 5 6 7 7 8 8 8 9 10 11 12 12 11
7 7 8 9 10 10 10 10 10 10 10 11 12 12 13 13 13 13 13 13 13 13 13 13 14 13 12 9 5 3 5 6 7 7 8 8 9 10 11 13 14 13
8 7 8 8 9 9 8 9 9 9 10 11 12 12 12 13 13 13 13 13 12 12 12 13 14 13 13 11 7 2 1 3 5 7 7 8 11 12 12 14 15 14
7 7 7 7 8 7 7 8 9 10 11 11 12 12 13 14 14 14 14 14 14 15 15 15 16 16 15 13 10 7 4 3 4 7 7 9 11 12 12 14 15 13
6 7 7 7 7 7 8 9 10 10 11 11 12 12 14 14 15 15 15 16 16 16 17 16 16 18 18 16 14 11 9 6 5 6 6 7 10 11 12 13 14 14
Wind_Speed
38 37 38 38 37 36 35 34 33 32 30 29 28 28 27 26 26 25 25 24 23 23 22 21 21 20 17 15 14 14 14 13 10 9 9 9 10 11 12 12 13 14
38 37 38 38 37 37 37 35 35 33 32 30 28 28 27 27 27 26 26 24 22 22 22 22 21 20 18 17 17 17 15 13 12 10 10 11 12 13 13 13 14 15
39 37 38 38 38 38 37 36 36 35 33 32 30 29 28 28 28 27 27 26 23 22 21 22 22 21 20 19 19 18 15 13 13 11 11 12 13 15 15 14 14 15
42 39 39 40 39 38 36 35 35 35 34 33 32 31 31 30 29 29 29 29 27 24 22 22 23 22 20 19 19 19 16 14 13 12 12 12 15 16 16 16 16 15
45 43 41 39 37 37 37 35 34 34 33 33 32 32 32 31 30 30 30 31 30 28 26 25 24 23 22 21 20 21 19 16 13 14 14 13 16 18 18 18 18 18
46 45 44 41 37 38 38 36 35 34 33 32 31 31 31 32 31 31 31 32 31 29 28 27 26 24 23 23 22 22 22 18 14 14 15 14 17 19 19 20 20 20
47 46 45 44 41 40 39 38 37 36 34 33 32 31 31 32 32 32 32 32 32 31 30 29 27 26 24 24 25 24 24 23 18 16 16 17 19 21 21 22 22 21
47 47 46 44 43 42 41 41 39 38 36 35 34 33 31 32 32 33 34 34 33 32 32 31 29 27 26 26 27 26 25 26 24 21 20 20 21 23 23 23 23 22
45 46 46 45 44 44 43 42 41 39 37 37 36 35 34 33 33 34 35 36 35 34 34 33 31 29 28 27 28 28 26 26 27 26 25 24 23 24 24 24 24 24
44 44 45 45 45 45 45 44 42 40 39 38 37 37 37 35 34 34 36 37 37 37 36 35 33 31 30 29 29 30 28 27 28 28 28 27 25 25 24 24 24 24
43 43 44 45 45 45 45 44 44 43 42 40 39 39 39 38 36 35 36 38 38 38 37 37 36 34 33 32 32 31 30 29 29 30 30 29 28 26 25 25 24 24
43 43 43 43 44 44 43 43 43 43 43 42 40 39 40 40 39 38 37 38 39 38 38 38 37 37 36 35 34 33 32 31 31 32 31 31 30 28 27 26 25 24
45 44 43 43 43 43 42 41 41 42 42 42 40 39 39 40 41 39 38 38 39 38 38 38 38 38 38 37 36 35 35 33 33 33 33 32 31 30 29 29 27 25
48 46 45 45 44 44 42 41 41 41 42 42 41 39 39 39 40 40 39 38 39 39 39 39 39 40 40 40 38 37 37 36 35 35 34 33 32 31 31 31 29 27
49 48 47 46 47 47 45 43 43 43 43 43 43 41 40 39 39 39 39 39 38 39 39 40 41 42 42 42 41 40 39 38 37 37 36 35 34 33 32 32 31 30
49 48 47 47 48 48 47 46 45 45 45 45 45 44 42 41 40 40 40 40 39 39 39 41 42 44 45 44 43 41 40 40 39 38 37 36 35 34 33 33 32 31
49 49 48 48 48 48 48 47 46 46 46 46 46 45 44 43 42 42 42 42 41 40 40 41 43 45 46 45 44 42 41 40 40 40 39 38 37 36 35 33 32 31
48 48 48 48 48 48 48 47 46 47 47 47 47 46 45 44 44 44 43 43 43 42 41 41 43 44 46 46 45 44 42 41 41 42 42 40 39 37 36 34 33 33
46 46 47 47 48 48 48 47 47 47 47 48 47 46 46 46 46 45 44 44 44 44 43 42 43 44 45 46 46 44 43 42 42 43 43 42 41 39 37 36 34 34
44 44 45 46 47 47 47 47 47 47 47 47 47 47 47 47 47 46 46 45 45 46 45 43 43 45 45 46 45 45 44 43 43 43 44 44 42 40 39 38 37 36
42 43 45 45 46 47 46 47 48 47 47 47 47 48 48 47 46 46 47 46 45 45 46 46 45 45 46 46 45 45 44 43 42 43 44 45 44 41 39 38 38 38
41 42 43 44 45 46 46 46 47 46 46 46 46 48 48 46 45 45 47 46 43 42 44 47 46 46 47 46 45 44 43 42 43 43 45 46 46 44 41 37 36 37
41 42 42 42 43 44 44 44 44 44 45 45 46 48 48 47 46 45 45 44 43 44 45 47 46 47 48 46 45 45 44 43 44 44 46 47 45 45 43 36 31 33
41 40 40 40 41 41 41 40 41 42 44 45 46 46 47 47 47 46 45 44 46 47 48 48 47 47 48 47 46 45 45 45 45 45 47 46 43 42 40 33 29 32
37 36 37 38 38 38 38 38 40 41 42 43 45 46 46 46 46 46 47 47 46 44 43 44 43 41 44 47 47 45 44 44 45 45 46 46 43 41 39 34 30 34
34 33 35 35 36 36 38 40 41 41 41 42 42 43 44 45 45 46 46 46 46 42 40 41 39 34 37 44 47 46 45 44 45 46 47 48 46 43 41 38 33 34
Wind_Direction
227 229 232 233 234 234 234 236 236 236 236 235 236 234 232 232 233 235 238 240 241 243 245 245 247 249 243 236 235 235 238 238 230 227 218 217 230 228 221 216 210 208
226 228 232 233 234 234 234 235 236 236 237 236 236 236 234 234 235 236 239 239 239 241 244 247 249 251 245 238 236 236 236 235 231 224 215 218 230 228 222 218 217 219
228 227 229 231 232 233 233 234 236 236 237 237 237 236 236 235 236 237 239 239 237 237 239 243 247 249 247 242 240 239 238 233 229 223 216 221 229 229 224 219 217 223
229 226 227 230 231 232 232 233 235 236 237 238 237 236 236 236 237 237 238 238 237 235 235 238 242 245 246 244 242 241 239 233 226 221 217 221 229 229 225 222 217 219
230 229 228 229 228 230 232 232 234 236 236 236 236 236 235 235 235 235 236 236 236 234 234 237 239 241 242 242 240 239 240 234 225 223 220 220 230 230 226 226 222 219
231 231 231 231 230 231 232 233 234 235 235 234 235 235 234 232 231 232 233 233 233 233 232 234 237 237 239 240 238 238 238 233 224 222 221 222 233 234 229 229 228 224
231 231 231 232 233 233 234 235 235 235 235 234 234 234 233 231 229 228 230 231 231 231 231 232 234 234 236 239 239 238 237 235 227 222 222 226 235 237 233 232 232 229
232 232 232 232 233 233 234 235 236 236 235 235 235 235 234 231 229 227 228 229 229 230 231 231 232 233 234 237 239 237 237 237 233 229 229 231 235 237 235 234 234 232
231 232 232 232 231 232 233 235 236 236 235 235 235 235 235 232 229 227 227 228 229 230 231 232 232 231 233 235 237 237 236 237 236 236 236 235 236 238 238 237 236 234
230 231 232 232 231 232 233 234 235 236 236 235 234 235 235 234 230 228 228 228 229 230 231 233 233 232 232 233 236 236 235 236 237 237 237 237 238 239 240 241 240 238
231 230 231 231 232 232 233 234 235 236 237 236 234 234 235 235 232 229 229 230 230 230 231 233 234 233 232 233 235 236 234 234 237 237 237 237 238 239 241 242 242 241
233 232 232 232 232 232 232 232 233 234 235 236 235 233 234 236 234 231 230 231 232 231 232 233 234 234 234 233 234 236 235 234 236 238 237 237 237 239 240 242 242 241
235 234 234 234 234 233 232 232 232 232 233 235 235 233 233 234 236 234 232 231 233 233 233 234 235 235 235 234 233 234 235 234 235 237 238 237 237 238 239 241 241 241
236 235 236 236 235 235 235 234 233 233 233 234 235 235 233 233 234 235 234 233 233 233 234 234 235 235 236 235 233 233 234 235 234 236 238 238 238 237 238 240 240 240
236 236 237 237 236 236 237 235 235 235 234 234 235 236 235 234 234 235 236 235 233 233 233 234 235 235 236 235 233 232 233 235 235 236 237 239 239 238 237 238 239 239
236 237 237 238 237 237 237 237 236 236 236 235 237 238 238 236 235 236 237 237 236 234 233 234 235 236 236 235 234 233 233 234 236 237 237 238 239 239 238 238 238 238
236 238 238 239 239 238 238 238 237 237 237 237 238 239 239 239 238 237 237 238 238 236 234 234 236 237 237 237 235 234 234 235 236 238 238 238 239 240 240 239 238 237
237 238 238 239 239 239 239 239 239 239 238 238 238 240 241 241 240 240 239 238 239 239 237 236 237 238 239 238 237 235 235 235 237 239 240 240 240 240 241 241 240 239
238 239 239 239 240 240 240 240 241 240 240 239 239 240 242 242 242 242 242 240 240 240 240 238 238 239 240 239 239 237 235 235 236 239 240 241 241 241 241 241 241 240
239 240 240 240 240 240 240 241 243 243 242 241 241 242 243 243 243 243 243 243 242 242 241 240 240 241 241 240 239 238 237 236 236 238 241 242 243 242 242 241 241 240
239 240 240 239 239 240 240 241 243 244 244 243 242 243 244 244 244 245 245 245 244 243 243 242 241 241 242 241 240 239 238 237 237 238 241 242 243 243 242 241 240 240
238 238 239 238 239 240 240 242 243 245 246 245 243 243 244 244 244 245 246 246 244 241 242 242 241 240 241 241 240 239 238 238 237 238 239 241 243 243 242 239 238 238
237 238 238 238 238 239 241 242 244 245 246 245 244 243 243 244 244 244 245 245 243 242 242 242 241 240 240 240 240 239 238 237 237 236 238 240 241 242 242 240 236 234
237 238 238 238 239 241 243 244 246 246 246 245 245 244 244 244 245 245 245 245 245 245 244 242 242 242 242 240 239 238 237 236 236 236 237 238 239 239 239 237 235 234
239 240 240 240 241 243 244 245 245 245 245 246 246 246 246 245 245 245 245 246 246 244 241 241 242 243 243 243 241 239 238 237 236 236 236 236 236 236 235 235 234 235
240 240 240 240 241 243 243 243 244 245 245 246 248 248 247 246 246 246 245 246 245 243 242 243 242 239 241 245 244 242 239 238 237 236 235 235 234 234 234 233 232 233
Height
1534 1536 1538 1540 1542 1544 1546 1547 1549 1551 1552 1554 1556 1558 1559 1560 1561 1563 1563 1564 1566 1567 1568 1569 1570 1571 1572 1573 1574 1575 1576 1576 1576 1577 1577 1577 1578 1579 1580 1581 1581 1582
1530 1532 1534 1536 1538 1540 1542 1544 1546 1547 1549 1551 1553 1555 1557 1558 1559 1560 1561 1562 1564 1565 1566 1567 1568 1568 1569 1571 1572 1573 1573 1574 1574 1575 1575 1575 1576 1577 1578 1579 1579 1580
1526 1528 1530 1532 1534 1536 1538 1541 1543 1544 1546 1548 1550 1552 1553 1555 1556 1558 1559 1560 1561 1563 1564 1565 1565 1566 1567 1568 1570 1570 1571 1571 1572 1574 1574 1573 1574 1575 1576 1577 1578 1578
1522 1524 1526 1528 1530 1533 1535 1537 1539 1541 1543 1545 1546 1548 1550 1552 1553 1554 1556 1557 1558 1560 1561 1562 1563 1564 1564 1565 1567 1568 1568 1569 1570 1572 1572 1571 1572 1573 1574 1575 1576 1576
1518 1520 1522 1525 1527 1529 1531 1533 1536 1537 1539 1541 1543 1545 1546 1548 1549 1551 1552 1554 1555 1557 1558 1559 1560 1561 1562 1563 1564 1565 1566 1567 1568 1569 1569 1569 1570 1571 1571 1572 1573 1574
1513 1516 1518 1521 1523 1526 1527 1529 1532 1534 1536 1538 1539 1541 1542 1544 1546 1547 1549 1550 1552 1553 1555 1556 1557 1558 1559 1560 1561 1562 1563 1565 1566 1566 1567 1567 1568 1569 1569 1570 1571 1572
1508 1511 1514 1517 1519 1522 1523 1525 1528 1530 1532 1534 1536 1537 1538 1540 1542 1543 1545 1546 1548 1550 1551 1552 1554 1555 1556 1557 1559 1560 1560 1562 1563 1564 1564 1565 1566 1566 1567 1568 1569 1570
1504 1507 1510 1513 1515 1517 1519 1521 1523 1525 1528 1530 1531 1533 1535 1536 1538 1539 1541 1542 1544 1546 1547 1549 1550 1552 1554 1554 1555 1557 1558 1559 1560 1561 1561 1562 1563 1564 1564 1565 1566 1567
1499 1502 1505 1508 1510 1512 1514 1517 1519 1521 1523 1525 1527 1529 1530 1532 1534 1535 1537 1538 1540 1542 1543 1545 1547 1548 1550 1551 1552 1554 1555 1556 1557 1558 1559 1559 1560 1561 1562 1563 1564 1565
1494 1497 1500 1502 1505 1507 1509 1512 1515 1517 1518 1520 1523 1525 1526 1528 1530 1532 1533 1534 1536 1538 1539 1541 1543 1545 1547 1548 1549 1550 1552 1553 1554 1555 1556 1557 1558 1558 1559 1560 1561 1562
1488 1491 1494 1496 1499 1502 1505 1508 1510 1512 1513 1515 1518 1520 1522 1523 1525 1527 1529 1530 1532 1534 1536 1537 1539 1541 1543 1544 1545 1547 1549 1550 1551 1551 1552 1553 1554 1555 1556 1557 1558 1560
1483 1486 1488 1491 1494 1497 1500 1503 1505 1507 1509 1510 1512 1515 1517 1519 1521 1523 1524 1526 1528 1530 1532 1534 1536 1538 1539 1541 1542 1543 1545 1547 1547 1548 1549 1550 1551 1552 1553 1554 1555 1557
1477 1480 1483 1486 1489 1492 1495 1498 1500 1502 1504 1505 1508 1510 1513 1515 1516 1518 1520 1522 1525 1527 1529 1530 1532 1534 1535 1536 1538 1540 1541 1543 1544 1545 1546 1547 1548 1549 1550 1551 1552 1553
1472 1476 1479 1482 1484 1487 1490 1493 1495 1497 1499 1501 1503 1505 1508 1510 1512 1514 1516 1519 1521 1523 1525 1526 1528 1529 1530 1532 1534 1536 1537 1539 1540 1541 1542 1543 1544 1545 1546 1547 1548 1550
1467 1471 1474 1477 1480 1482 1484 1487 1490 1492 1494 1497 1499 1501 1503 1506 1508 1511 1512 1514 1516 1518 1520 1522 1523 1524 1525 1527 1529 1531 1533 1535 1536 1538 1539 1540 1541 1542 1543 1544 1545 1546
1463 1466 1469 1472 1474 1476 1479 1482 1485 1488 1490 1492 1494 1496 1499 1501 1504 1506 1508 1509 1511 1514 1516 1517 1517 1518 1520 1522 1525 1527 1529 1531 1533 1534 1535 1536 1537 1538 1539 1540 1541 1543
1458 1461 1464 1466 1469 1471 1474 1477 1480 1483 1485 1487 1489 1492 1494 1497 1499 1501 1503 1505 1506 1508 1510 1511 1512 1513 1515 1518 1520 1523 1525 1527 1529 1530 1531 1532 1533 1534 1535 1536 1538 1539
1454 1457 1459 1462 1464 1467 1470 1473 1476 1479 1481 1483 1485 1487 1489 1492 1494 1496 1498 1500 1501 1503 1505 1506 1507 1508 1510 1513 1515 1518 1521 1523 1525 1526 1526 1528 1529 1530 1532 1533 1534 1535
1450 1453 1455 1458 1460 1462 1466 1469 1472 1474 1476 1478 1480 1483 1485 1486 1488 1491 1493 1495 1496 1497 1499 1501 1502 1503 1505 1507 1510 1513 1517 1519 1520 1521 1522 1523 1525 1526 1528 1529 1530 1531
1447 1449 1451 1454 1456 1459 1462 1465 1467 1470 1472 1475 1477 1479 1480 1481 1484 1486 1487 1489 1491 1493 1494 1496 1497 1498 1499 1502 1505 1508 1511 1514 1516 1517 1517 1519 1520 1521 1523 1524 1525 1526
1443 1445 1448 1450 1453 1456 1458 1460 1463 1465 1468 1471 1473 1474 1475 1477 1479 1481 1482 1484 1486 1488 1489 1490 1491 1493 1494 1496 1499 1502 1506 1509 1511 1512 1513 1513 1515 1516 1517 1519 1520 1521
1437 1440 1443 1446 1448 1451 1453 1456 1458 1460 1462 1465 1467 1469 1471 1472 1474 1475 1477 1479 1481 1483 1483 1484 1485 1487 1488 1490 1493 1497 1500 1503 1505 1506 1507 1507 1509 1510 1512 1513 1515 1516
1432 1435 1438 1441 1443 1445 1448 1450 1452 1454 1457 1459 1462 1463 1465 1467 1468 1470 1472 1474 1475 1476 1477 1478 1479 1481 1483 1485 1488 1491 1494 1496 1498 1499 1500 1501 1503 1505 1507 1508 1510 1511
1428 1431 1434 1436 1438 1440 1442 1445 1447 1449 1452 1454 1456 1458 1460 1462 1464 1466 1467 1468 1469 1470 1471 1473 1474 1476 1477 1480 1482 1484 1487 1489 1491 1493 1494 1496 1498 1500 1502 1503 1505 1506
1425 1428 1430 1432 1434 1436 1438 1440 1442 1444 1447 1449 1451 1453 1456 1458 1460 1462 1462 1463 1464 1466 1467 1469 1471 1472 1473 1474 1477 1479 1481 1482 1484 1486 1487 1489 1491 1493 1496 1498 1499 1500
1423 1425 1426 1428 1429 1431 1434 1436 1438 1440 1442 1444 1447 1449 1452 1454 1456 1457 1458 1459 1460 1462 1463 1464 1466 1467 1468 1468 1471 1473 1475 1477 1478 1478 1480 1481 1483 1486 1488 1490 1492 1494